CW2099 Weather Reports


Display with metric or nautical units.
time (UTC)temp
F
wind
direction
speed
MPH
gust
MPH
rain 1hr
in
rain 24hr
in
rain mn
in
humidity
%
barometer
mb
20260831124532 66 292 1.0 3.0 0.00 0.01 0.00 87 1010.2
20260831123031 66 290 0.0 3.0 0.00 0.01 0.00 87 1010.2
20260831121532 66 292 1.0 4.0 0.00 0.01 0.00 87 1009.9
20260831120039 66 288 0.0 5.0 0.00 0.01 0.00 87 1009.8
20260831114529 66 290 0.0 3.0 0.00 0.01 0.00 87 1010.1
20260831113028 66 18 1.0 2.0 0.00 0.01 0.00 87 1010.2
20260831111527 66 285 0.0 3.0 0.00 0.01 0.00 87 1010.2
20260831110035 66 284 1.0 3.0 0.00 0.01 0.00 87 1010.4
20260831104533 66 292 3.0 4.0 0.00 0.01 0.00 87 1010.3
20260831103025 66 304 1.0 4.0 0.00 0.01 0.00 87 1010.6
20260831101528 66 288 1.0 4.0 0.00 0.01 0.00 87 1010.7
20260831100022 66 287 1.0 4.0 0.00 0.02 0.00 87 1010.8
20260831094522 66 292 1.0 5.0 0.00 0.02 0.00 87 1011.0
20260831093022 66 273 3.0 8.0 0.00 0.02 0.00 87 1010.9
20260831091536 66 286 3.0 9.0 0.00 0.02 0.00 86 1011.0
20260831090020 66 290 3.0 7.0 0.00 0.02 0.00 86 1010.9
20260831084518 66 277 5.0 9.0 0.00 0.02 0.00 86 1011.1
20260831083016 66 289 4.0 7.0 0.00 0.02 0.00 86 1011.1
20260831081532 66 296 4.0 8.0 0.00 0.02 0.00 86 1011.3
20260831080030 66 278 4.0 7.0 0.00 0.02 0.00 85 1011.4
20260831074512 66 285 3.0 5.0 0.00 0.02 0.00 85 1011.5
20260831073025 66 284 2.0 4.0 0.00 0.02 0.00 85 1011.7
20260831071510 66 286 0.0 4.0 0.00 0.02 0.00 85 1011.7
20260831070009 66 279 3.0 7.0 0.00 0.03 0.00 85 1011.8
20260831064507 66 281 2.0 6.0 0.00 0.03 0.00 86 1012.1
20260831063005 66 294 0.0 2.0 0.00 0.03 0.00 86 1012.5
20260831061503 66 294 0.0 1.0 0.00 0.03 0.00 86 1012.7
20260831060003 66 355 1.0 4.0 0.00 0.03 0.00 86 1012.6
20260831054502 66 286 0.0 3.0 0.00 0.03 0.00 86 1012.7
20260831053100 66 292 0.0 2.0 0.00 0.03 0.00 85 1012.7
20260831051600 66 292 0.0 4.0 0.00 0.03 0.00 85 1013.0
20260831050058 66 300 0.0 3.0 0.00 0.04 0.03 85 1013.3
20260831044602 66 284 2.0 4.0 0.00 0.04 0.03 85 1013.0
20260831043056 67 271 3.0 7.0 0.00 0.04 0.03 85 1013.1
20260831041607 67 281 1.0 6.0 0.00 0.04 0.03 85 1012.9
20260831040057 66 288 2.0 7.0 0.00 0.04 0.03 85 1012.8
20260831034658 66 298 0.0 4.0 0.00 0.04 0.03 85 1013.1
20260831033054 66 296 2.0 3.0 0.00 0.04 0.03 85 1013.2
20260831031553 66 297 1.0 4.0 0.00 0.04 0.03 85 1013.0
20260831030100 67 297 0.0 4.0 0.00 0.04 0.03 86 1012.9
20260831024553 67 290 1.0 4.0 0.00 0.04 0.03 86 1012.9
20260831023052 67 284 0.0 4.0 0.00 0.04 0.03 86 1013.0
20260831021552 67 284 3.0 7.0 0.00 0.04 0.03 86 1012.8
20260831020052 67 285 3.0 8.0 0.00 0.04 0.03 86 1012.7
20260831014550 67 294 2.0 5.0 0.00 0.04 0.03 86 1012.4
20260831013055 67 288 3.0 5.0 0.00 0.04 0.03 86 1012.4
20260831011551 67 288 3.0 5.0 0.00 0.04 0.03 86 1012.6
20260831010109 67 281 1.0 5.0 0.00 0.04 0.03 86 1012.6
20260831004557 67 283 4.0 6.0 0.00 0.04 0.03 86 1012.5
20260831003102 67 289 0.0 4.0 0.00 0.04 0.03 86 1012.5
20260831001549 67 291 1.0 4.0 0.00 0.04 0.03 85 1012.3
20260831000048 67 288 3.0 7.0 0.00 0.05 0.03 85 1012.0
20260830234548 67 295 3.0 7.0 0.00 0.05 0.03 86 1012.1
20260830233047 67 273 2.0 8.0 0.00 0.05 0.03 86 1012.3
20260830231548 67 277 5.0 10.0 0.00 0.05 0.03 86 1011.8
20260830230047 67 266 4.0 8.0 0.00 0.06 0.03 86 1011.8
20260830224547 67 275 7.0 10.0 0.00 0.06 0.03 86 1011.7
20260830223047 67 265 6.0 9.0 0.00 0.06 0.03 86 1011.6
20260830221545 67 267 6.0 8.0 0.00 0.06 0.03 85 1011.7
20260830220046 67 256 5.0 9.0 0.00 0.13 0.03 85 1011.8
20260830214544 67 286 2.0 5.0 0.00 0.13 0.03 85 1011.9
20260830213146 67 286 2.0 4.0 0.00 0.13 0.03 85 1012.1
20260830211544 67 270 4.0 7.0 0.00 0.13 0.03 85 1012.0
20260830210044 67 274 3.0 9.0 0.00 0.15 0.03 84 1011.9
20260830204543 67 292 3.0 7.0 0.00 0.15 0.03 84 1012.0
20260830203043 67 279 2.0 4.0 0.00 0.15 0.03 84 1012.2
20260830201544 67 273 4.0 8.0 0.00 0.15 0.03 84 1012.3
20260830200041 67 283 4.0 8.0 0.00 0.16 0.03 84 1012.5
20260830194552 67 273 3.0 7.0 0.00 0.16 0.03 84 1012.4
20260830193043 67 276 2.0 4.0 0.00 0.16 0.03 84 1012.3
20260830191539 67 278 2.0 9.0 0.00 0.16 0.03 84 1012.4
20260830190039 67 269 4.0 8.0 0.00 0.16 0.03 84 1012.4
20260830184538 67 270 2.0 9.0 0.00 0.16 0.03 84 1012.2
20260830183037 66 265 3.0 7.0 0.00 0.16 0.03 84 1012.1
20260830181537 66 265 8.0 13.0 0.00 0.16 0.03 84 1011.7
20260830180038 67 267 7.0 12.0 0.00 0.16 0.03 83 1011.7
20260830174552 66 281 5.0 11.0 0.00 0.16 0.03 84 1011.6
20260830173041 67 269 6.0 9.0 0.00 0.16 0.03 84 1011.7
20260830171540 66 276 4.0 9.0 0.00 0.16 0.03 84 1011.7
20260830170036 66 273 7.0 11.0 0.00 0.16 0.03 84 1012.1
20260830164537 66 265 5.0 10.0 0.00 0.16 0.03 83 1012.3
20260830163045 67 285 3.0 9.0 0.00 0.16 0.03 83 1012.2
20260830161540 67 296 4.0 7.0 0.00 0.16 0.03 83 1012.0
20260830160034 67 275 3.0 8.0 0.00 0.16 0.03 83 1012.2
20260830154531 67 263 7.0 11.0 0.00 0.16 0.03 83 1012.3
20260830153036 67 281 5.0 10.0 0.00 0.16 0.03 83 1012.1
20260830151539 66 273 5.0 9.0 0.00 0.16 0.03 84 1012.1
20260830150030 66 273 3.0 10.0 0.00 0.16 0.03 85 1011.7
20260830144534 65 265 5.0 9.0 0.00 0.16 0.03 86 1011.2
20260830143028 65 271 4.0 8.0 0.01 0.16 0.03 87 1011.7
20260830141520 64 269 3.0 7.0 0.01 0.16 0.03 87 1011.4
20260830140018 64 276 2.0 6.0 0.01 0.16 0.03 87 1011.8
20260830134518 64 273 2.0 8.0 0.01 0.16 0.03 87 1012.0
20260830133021 64 280 2.0 4.0 0.00 0.15 0.02 87 1011.8
20260830131515 63 279 3.0 7.0 0.00 0.15 0.02 87 1012.0
20260830130015 63 273 3.0 7.0 0.00 0.15 0.02 87 1011.8